GW4881 Weather Reports


time (UTC)temp
F
wind
direction
speed
knots
gust
knots
rain 1hr
in
rain 24hr
in
rain mn
in
humidity
%
barometer
mb
20260509024802 77 296 1.7 3.5 0.00 0.00 0.00 79 1015.0
20260509024302 76 55 0.9 2.6 0.00 0.00 0.00 80 1015.0
20260509023802 76 67 1.7 2.6 0.00 0.00 0.00 82 1015.0
20260509023301 76 67 0.0 1.7 0.00 0.00 0.00 82 1015.0
20260509022802 75 77 0.9 1.7 0.00 0.00 0.00 83 1015.0
20260509022306 75 268 1.7 3.5 0.00 0.00 0.00 82 1015.0
20260509021802 75 10 0.9 2.6 0.00 0.00 0.00 82 1014.0
20260509021304 74 276 1.7 2.6 0.00 0.00 0.00 83 1014.0
20260509020804 74 39 0.0 1.7 0.00 0.00 0.00 84 1014.0
20260509020303 74 244 0.9 1.7 0.00 0.00 0.00 85 1014.0
20260509015801 74 92 0.9 2.6 0.00 0.00 0.00 87 1014.0
20260509015306 73 320 1.7 3.5 0.00 0.00 0.00 88 1014.0
20260509014803 73 353 0.9 2.6 0.00 0.00 0.00 89 1014.0
20260509014302 73 67 1.7 3.5 0.00 0.00 0.00 90 1014.0
20260509013802 73 64 0.9 2.6 0.00 0.00 0.00 90 1014.0
20260509013303 73 0 0.0 1.7 0.00 0.00 0.00 91 1014.0
20260509012804 72 333 0.0 0.0 0.00 0.00 0.00 92 1014.0
20260509012301 72 240 1.7 2.6 0.00 0.00 0.00 92 1014.0
20260509011802 72 354 0.0 1.7 0.00 0.00 0.00 92 1014.0
20260509011303 72 27 0.0 0.9 0.00 0.00 0.00 92 1014.0
20260509010802 72 183 0.0 1.7 0.00 0.00 0.00 92 1014.0
20260509010302 71 266 0.0 0.9 0.00 0.00 0.00 93 1014.0
20260509005802 71 0 0.0 0.0 0.00 0.00 0.00 93 1014.0
20260509005305 71 255 0.9 1.7 0.00 0.00 0.00 93 1014.0
20260509004802 71 66 0.0 0.9 0.00 0.00 0.00 93 1014.0
20260509004303 71 74 0.0 0.9 0.00 0.00 0.00 93 1014.0
20260509003802 71 0 0.0 0.0 0.00 0.00 0.00 93 1014.0
20260509003301 71 285 0.9 1.7 0.00 0.00 0.00 94 1014.0
20260509002801 71 230 0.0 0.9 0.00 0.00 0.00 93 1014.0
20260509002306 71 292 0.9 1.7 0.00 0.00 0.00 94 1014.0
20260509001801 71 247 0.0 0.9 0.00 0.00 0.00 94 1014.0
20260509001301 72 350 0.9 1.7 0.00 0.00 0.00 94 1013.0
20260509000801 72 67 1.7 2.6 0.00 0.00 0.00 93 1013.0
20260509000305 72 69 0.9 1.7 0.00 0.00 0.00 93 1013.0
20260508235803 72 255 0.0 1.7 0.00 0.00 0.00 93 1013.0
20260508235306 72 295 0.9 1.7 0.00 0.00 0.00 93 1013.0
20260508234803 72 223 0.0 0.0 0.00 0.00 0.00 93 1013.0
20260508234303 72 345 0.0 1.7 0.00 0.00 0.00 93 1013.0
20260508233801 72 56 0.0 0.9 0.00 0.00 0.00 93 1013.0
20260508233305 72 67 0.9 2.6 0.00 0.00 0.00 93 1013.0
20260508232803 72 285 1.7 2.6 0.00 0.00 0.00 93 1013.0
20260508232306 72 141 0.0 1.7 0.00 0.00 0.00 93 1013.0
20260508231803 72 97 0.0 0.9 0.00 0.00 0.00 92 1013.0
20260508231303 72 268 0.0 0.9 0.00 0.00 0.00 92 1013.0
20260508230802 72 78 0.0 0.0 0.00 0.00 0.00 92 1013.0
20260508230302 72 48 0.9 2.6 0.00 0.00 0.00 92 1013.0
20260508225803 72 62 0.9 2.6 0.00 0.00 0.00 92 1013.0
20260508225301 72 355 0.0 0.9 0.00 0.00 0.00 93 1013.0
20260508224801 72 52 0.9 1.7 0.00 0.00 0.00 93 1012.0
20260508224302 72 38 0.0 1.7 0.00 0.00 0.00 93 1012.0
20260508223802 72 10 0.0 0.9 0.00 0.00 0.00 93 1012.0
20260508223304 72 56 0.9 3.5 0.00 0.00 0.00 93 1012.0
20260508222803 72 68 0.9 2.6 0.00 0.00 0.00 93 1012.0
20260508222306 72 14 0.0 1.7 0.00 0.00 0.00 93 1012.0
20260508221804 72 279 0.9 1.7 0.00 0.00 0.00 93 1012.0
20260508221304 72 57 0.9 2.6 0.00 0.00 0.00 93 1012.0
20260508220805 72 62 2.6 3.5 0.00 0.00 0.00 93 1012.0
20260508220303 72 303 0.0 0.9 0.00 0.00 0.00 93 1013.0
20260508215801 72 267 0.9 1.7 0.00 0.00 0.00 93 1012.0
20260508215306 72 147 0.0 0.9 0.00 0.00 0.00 92 1012.0
20260508214803 73 74 1.7 2.6 0.00 0.00 0.00 92 1012.0
20260508214302 73 223 0.0 0.9 0.00 0.00 0.00 92 1012.0
20260508213803 73 252 0.0 0.9 0.00 0.00 0.00 92 1012.0
20260508213304 73 65 0.0 0.9 0.00 0.00 0.00 91 1013.0
20260508212802 73 294 0.9 1.7 0.00 0.00 0.00 91 1013.0
20260508212306 73 235 0.9 1.7 0.00 0.00 0.00 91 1013.0
20260508211802 73 49 0.0 0.9 0.00 0.00 0.00 90 1013.0
20260508211302 73 39 0.0 0.9 0.00 0.00 0.00 90 1013.0
20260508210803 73 40 0.9 1.7 0.00 0.00 0.00 91 1013.0
20260508210302 73 62 0.9 3.5 0.00 0.00 0.00 91 1013.0
20260508205802 73 67 1.7 3.5 0.00 0.00 0.00 91 1013.0
20260508205306 73 64 0.9 1.7 0.00 0.00 0.00 91 1013.0
20260508204802 74 53 1.7 2.6 0.00 0.00 0.00 91 1013.0
20260508204304 74 44 0.9 2.6 0.00 0.00 0.00 91 1013.0
20260508203801 74 71 0.9 2.6 0.00 0.00 0.00 91 1013.0
20260508203302 74 54 0.0 0.9 0.00 0.00 0.00 91 1013.0
20260508202801 74 46 0.9 2.6 0.00 0.00 0.00 90 1013.0
20260508202306 74 72 0.9 1.7 0.00 0.00 0.00 90 1013.0
20260508201802 74 260 0.9 1.7 0.00 0.00 0.00 90 1013.0
20260508201303 74 241 0.9 2.6 0.00 0.00 0.00 90 1013.0
20260508200802 74 286 0.9 1.7 0.00 0.00 0.00 91 1013.0
20260508200302 74 68 0.9 2.6 0.00 0.00 0.00 91 1013.0
20260508195803 74 70 1.7 3.5 0.00 0.00 0.00 90 1013.0
20260508195305 75 298 0.9 1.7 0.00 0.00 0.00 90 1013.0
20260508194801 75 2 0.9 2.6 0.00 0.00 0.00 90 1013.0
20260508194304 75 62 1.7 5.2 0.00 0.00 0.00 90 1013.0
20260508193802 75 12 0.9 2.6 0.00 0.00 0.00 89 1013.0
20260508193301 75 325 0.9 2.6 0.00 0.00 0.00 89 1013.0
20260508192802 75 51 1.7 6.1 0.00 0.00 0.00 88 1013.0
20260508192305 75 61 1.7 2.6 0.00 0.00 0.00 88 1013.0
20260508191802 76 66 1.7 3.5 0.00 0.00 0.00 88 1013.0
20260508191301 76 80 0.9 3.5 0.00 0.00 0.00 88 1013.0
20260508190802 76 48 1.7 2.6 0.00 0.00 0.00 88 1013.0
20260508190306 76 44 1.7 3.5 0.00 0.00 0.00 88 1014.0
20260508185803 76 30 0.9 1.7 0.00 0.00 0.00 88 1014.0
20260508185301 76 47 1.7 2.6 0.00 0.00 0.00 88 1014.0
20260508184802 76 54 1.7 3.5 0.00 0.00 0.00 88 1014.0
20260508184305 76 39 1.7 4.3 0.00 0.00 0.00 88 1014.0
20260508183806 76 20 0.9 2.6 0.00 0.00 0.00 88 1014.0
20260508183302 76 261 0.9 2.6 0.00 0.00 0.00 88 1014.0
20260508182802 76 45 1.7 3.5 0.00 0.00 0.00 87 1014.0
20260508182306 76 47 1.7 3.5 0.00 0.00 0.00 87 1014.0
20260508181805 76 27 0.9 3.5 0.00 0.00 0.00 87 1014.0
20260508181303 76 43 1.7 5.2 0.00 0.00 0.00 87 1014.0
20260508180802 76 230 0.9 1.7 0.00 0.00 0.00 87 1014.0
20260508180306 76 62 0.9 2.6 0.00 0.00 0.00 87 1014.0
20260508175801 76 44 1.7 3.5 0.00 0.00 0.00 87 1014.0
20260508175306 77 56 1.7 2.6 0.00 0.00 0.00 86 1014.0
20260508174801 77 58 1.7 3.5 0.00 0.00 0.00 87 1014.0
20260508174302 77 52 1.7 3.5 0.00 0.00 0.00 87 1015.0
20260508173803 77 46 3.5 7.0 0.00 0.00 0.00 87 1015.0
20260508173302 77 49 1.7 4.3 0.00 0.00 0.00 87 1015.0
20260508172801 77 34 1.7 5.2 0.00 0.00 0.00 87 1015.0
20260508172307 77 40 3.5 6.1 0.00 0.00 0.00 86 1015.0
20260508171803 77 44 1.7 5.2 0.00 0.00 0.00 86 1015.0
20260508171302 77 50 1.7 4.3 0.00 0.00 0.00 86 1015.0
20260508170802 77 39 1.7 3.5 0.00 0.00 0.00 86 1015.0
20260508170302 77 33 1.7 5.2 0.00 0.00 0.00 86 1015.0
20260508165806 77 33 1.7 3.5 0.00 0.00 0.00 86 1015.0
20260508165301 78 34 1.7 3.5 0.00 0.00 0.00 86 1015.0
20260508164802 78 22 1.7 3.5 0.00 0.00 0.00 85 1015.0
20260508164302 78 47 1.7 3.5 0.00 0.00 0.00 85 1015.0
20260508163802 78 45 2.6 4.3 0.00 0.00 0.00 85 1015.0
20260508163303 78 45 3.5 7.0 0.00 0.00 0.00 84 1015.0
20260508162802 78 179 1.7 2.6 0.00 0.00 0.00 84 1015.0
20260508162306 78 42 1.7 3.5 0.00 0.00 0.00 83 1015.0
20260508161802 78 42 1.7 3.5 0.00 0.00 0.00 83 1014.0
20260508161302 78 33 1.7 3.5 0.00 0.00 0.00 83 1014.0
20260508160803 78 57 2.6 6.1 0.00 0.00 0.00 83 1014.0
20260508160305 78 54 1.7 4.3 0.00 0.00 0.00 83 1014.0
20260508155803 79 54 3.5 7.0 0.00 0.00 0.00 83 1014.0
20260508155305 79 51 2.6 6.1 0.00 0.00 0.00 83 1014.0
20260508154802 79 47 2.6 5.2 0.00 0.00 0.00 83 1014.0
20260508154301 79 44 1.7 4.3 0.00 0.00 0.00 83 1014.0
20260508153804 79 41 2.6 5.2 0.00 0.00 0.00 83 1014.0
20260508153301 79 58 2.6 4.3 0.00 0.00 0.00 83 1014.0
20260508152802 79 54 1.7 4.3 0.00 0.00 0.00 83 1014.0
20260508152306 79 40 2.6 4.3 0.00 0.00 0.00 83 1014.0
20260508151804 80 43 2.6 4.3 0.00 0.00 0.00 82 1014.0
20260508151302 80 38 2.6 5.2 0.00 0.00 0.00 81 1014.0
20260508150802 80 36 2.6 5.2 0.00 0.00 0.00 80 1014.0
20260508150301 80 53 1.7 3.5 0.00 0.00 0.00 80 1014.0
20260508145802 80 72 1.7 2.6 0.00 0.00 0.00 80 1013.0
20260508145302 80 4 0.9 1.7 0.00 0.00 0.00 79 1013.0
20260508144802 80 51 2.6 5.2 0.00 0.00 0.00 79 1013.0
20260508144301 80 39 1.7 3.5 0.00 0.00 0.00 79 1013.0
20260508143803 81 39 1.7 5.2 0.00 0.00 0.00 78 1013.0
20260508143304 81 45 2.6 4.3 0.00 0.00 0.00 78 1013.0
20260508142802 81 68 1.7 2.6 0.00 0.00 0.00 78 1013.0
20260508142301 81 56 2.6 4.3 0.00 0.00 0.00 78 1013.0
20260508141801 81 32 1.7 3.5 0.00 0.00 0.00 77 1013.0
20260508141305 81 43 1.7 4.3 0.00 0.00 0.00 76 1013.0
20260508140304 81 44 1.7 3.5 0.00 0.00 0.00 75 1013.0
20260508135803 81 50 1.7 3.5 0.00 0.00 0.00 74 1012.0
20260508135306 81 47 0.9 2.6 0.00 0.00 0.00 74 1013.0
20260508134803 81 47 1.7 3.5 0.00 0.00 0.00 74 1012.0
20260508134303 81 23 1.7 3.5 0.00 0.00 0.00 73 1012.0
20260508133802 81 46 1.7 3.5 0.00 0.00 0.00 73 1012.0
20260508133304 81 52 0.9 1.7 0.00 0.00 0.00 72 1012.0
20260508132802 81 21 1.7 5.2 0.00 0.00 0.00 70 1012.0
20260508132306 81 46 2.6 4.3 0.00 0.00 0.00 70 1012.0
20260508131804 81 59 2.6 4.3 0.00 0.00 0.00 69 1012.0
20260508131302 81 56 2.6 3.5 0.00 0.00 0.00 67 1012.0
20260508130803 82 47 1.7 4.3 0.00 0.00 0.00 67 1012.0
20260508130302 82 42 0.9 2.6 0.00 0.00 0.00 66 1012.0
20260508125801 82 34 1.7 2.6 0.00 0.00 0.00 66 1011.0
20260508125305 82 53 2.6 5.2 0.00 0.00 0.00 65 1011.0
20260508124801 82 17 2.6 6.1 0.00 0.00 0.00 67 1011.0
20260508124302 83 50 3.5 8.7 0.00 0.00 0.00 67 1011.0
20260508123802 83 48 2.6 4.3 0.00 0.00 0.00 68 1011.0
20260508123302 84 44 3.5 7.8 0.00 0.00 0.00 68 1011.0
20260508122802 85 46 4.3 8.7 0.00 0.00 0.00 69 1011.0
20260508122306 86 42 4.3 7.0 0.00 0.00 0.00 69 1011.0
20260508121806 88 33 3.5 8.7 0.00 0.00 0.00 65 1011.0
20260508121304 89 46 1.7 2.6 0.00 0.00 0.00 55 1010.0
20260508120802 89 22 1.7 4.3 0.00 0.00 0.00 55 1010.0
20260508120301 89 62 3.5 7.0 0.00 0.00 0.00 52 1010.0
20260508115801 89 70 2.6 6.1 0.00 0.00 0.00 51 1010.0
20260508115306 89 350 1.7 3.5 0.00 0.00 0.00 51 1010.0
20260508114804 89 337 1.7 3.5 0.00 0.00 0.00 51 1010.0
20260508114301 89 63 1.7 2.6 0.00 0.00 0.00 52 1010.0
20260508113805 89 334 2.6 6.1 0.00 0.00 0.00 53 1010.0
20260508113302 89 324 1.7 5.2 0.00 0.00 0.00 52 1010.0
20260508112802 90 328 3.5 5.2 0.00 0.00 0.00 50 1010.0
20260508112307 91 317 1.7 3.5 0.00 0.00 0.00 51 1010.0
20260508111801 91 17 1.7 4.3 0.00 0.00 0.00 51 1010.0
20260508111303 91 32 1.7 6.1 0.00 0.00 0.00 50 1010.0
20260508110802 91 2 1.7 5.2 0.00 0.00 0.00 49 1010.0
20260508110303 90 278 1.7 3.5 0.00 0.00 0.00 50 1010.0
20260508105804 89 64 1.7 4.3 0.00 0.00 0.00 50 1010.0
20260508105306 89 63 0.9 2.6 0.00 0.00 0.00 50 1010.0
20260508104802 89 359 1.7 3.5 0.00 0.00 0.00 51 1010.0
20260508104304 90 357 1.7 3.5 0.00 0.00 0.00 50 1010.0
20260508103802 90 21 2.6 7.8 0.00 0.00 0.00 50 1010.0
20260508103303 90 36 1.7 3.5 0.00 0.00 0.00 50 1010.0
20260508102804 90 296 1.7 3.5 0.00 0.00 0.00 50 1010.0
20260508102306 91 320 1.7 5.2 0.00 0.00 0.00 49 1010.0
20260508101803 91 56 2.6 6.1 0.00 0.00 0.00 50 1010.0
20260508101303 90 29 1.7 3.5 0.00 0.00 0.00 50 1010.0
20260508100805 89 359 1.7 3.5 0.00 0.00 0.00 50 1010.0
20260508100303 89 33 1.7 3.5 0.00 0.00 0.00 51 1011.0
20260508095803 89 322 1.7 5.2 0.00 0.00 0.00 52 1011.0
20260508095306 88 57 2.6 5.2 0.00 0.00 0.00 53 1011.0
20260508094804 87 54 1.7 4.3 0.00 0.00 0.00 54 1011.0
20260508094302 87 59 1.7 3.5 0.00 0.00 0.00 55 1011.0
20260508093804 87 62 1.7 3.5 0.00 0.00 0.00 55 1011.0
20260508093302 87 57 1.7 4.3 0.00 0.00 0.00 55 1011.0
20260508092804 87 54 3.5 7.0 0.00 0.00 0.00 55 1011.0
20260508092311 88 72 2.6 4.3 0.00 0.00 0.00 55 1011.0
20260508091801 88 61 3.5 5.2 0.00 0.00 0.00 55 1011.0
20260508091303 88 50 2.6 5.2 0.00 0.00 0.00 55 1011.0
20260508090802 88 29 2.6 5.2 0.00 0.00 0.00 55 1011.0
20260508090304 88 359 1.7 2.6 0.00 0.00 0.00 55 1011.0
20260508085805 89 54 3.5 7.0 0.00 0.00 0.00 54 1011.0
20260508085302 88 219 0.9 2.6 0.00 0.00 0.00 55 1011.0
20260508084804 88 47 2.6 6.1 0.00 0.00 0.00 54 1011.0
20260508084303 88 59 3.5 6.1 0.00 0.00 0.00 54 1011.0
20260508083803 88 39 1.7 5.2 0.00 0.00 0.00 55 1011.0
20260508083301 89 60 3.5 7.0 0.00 0.00 0.00 53 1011.0
20260508082802 89 44 1.7 5.2 0.00 0.00 0.00 53 1011.0
20260508082306 89 54 2.6 7.0 0.00 0.00 0.00 53 1012.0
20260508081326 89 54 1.7 5.2 0.00 0.00 0.00 53 1011.0
20260508080802 88 341 2.6 7.0 0.00 0.00 0.00 54 1012.0
20260508080305 88 329 2.6 5.2 0.00 0.00 0.00 55 1012.0
20260508075805 88 60 4.3 7.0 0.00 0.00 0.00 54 1012.0
20260508075308 88 54 3.5 7.0 0.00 0.00 0.00 55 1012.0
20260508074804 88 35 2.6 6.1 0.00 0.00 0.00 56 1012.0
20260508074305 88 311 2.6 3.5 0.00 0.00 0.00 55 1012.0
20260508073804 87 70 2.6 5.2 0.00 0.00 0.00 56 1012.0
20260508073303 87 306 2.6 4.3 0.00 0.00 0.00 56 1012.0
20260508072801 87 59 1.7 5.2 0.00 0.00 0.00 56 1013.0
20260508072307 87 63 1.7 3.5 0.00 0.00 0.00 58 1013.0
20260508071802 87 300 1.7 3.5 0.00 0.00 0.00 58 1013.0
20260508071301 87 326 2.6 7.0 0.00 0.00 0.00 57 1013.0
20260508070802 87 65 3.5 6.1 0.00 0.00 0.00 58 1013.0
20260508070302 87 317 0.9 2.6 0.00 0.00 0.00 59 1013.0
20260508065801 87 33 2.6 5.2 0.00 0.00 0.00 58 1013.0
20260508065306 87 51 4.3 7.0 0.00 0.00 0.00 56 1013.0
20260508064803 87 351 3.5 6.1 0.00 0.00 0.00 56 1013.0
20260508064307 87 131 0.9 2.6 0.00 0.00 0.00 57 1013.0
20260508063803 86 33 1.7 2.6 0.00 0.00 0.00 58 1013.0
20260508063304 86 54 1.7 3.5 0.00 0.00 0.00 58 1013.0
20260508062803 86 14 0.9 2.6 0.00 0.00 0.00 61 1013.0
20260508062306 85 64 0.9 2.6 0.00 0.00 0.00 62 1013.0
20260508061809 86 66 1.7 2.6 0.00 0.00 0.00 62 1013.0
20260508061301 86 339 1.7 4.3 0.00 0.00 0.00 61 1013.0
20260508060804 85 37 0.9 2.6 0.00 0.00 0.00 62 1013.0
20260508060303 85 83 1.7 3.5 0.00 0.00 0.00 63 1013.0
20260508055803 85 248 0.9 2.6 0.00 0.00 0.00 63 1013.0
20260508055306 84 64 2.6 3.5 0.00 0.00 0.00 64 1014.0
20260508054803 84 46 1.7 3.5 0.00 0.00 0.00 65 1014.0
20260508054301 84 43 1.7 3.5 0.00 0.00 0.00 66 1014.0
20260508053801 84 78 1.7 3.5 0.00 0.00 0.00 66 1014.0
20260508053306 84 56 0.9 1.7 0.00 0.00 0.00 66 1014.0
20260508052804 84 54 2.6 5.2 0.00 0.00 0.00 65 1014.0
20260508052307 84 60 1.7 5.2 0.00 0.00 0.00 66 1014.0
20260508051803 84 354 0.9 4.3 0.00 0.00 0.00 67 1014.0
20260508051304 83 38 1.7 4.3 0.00 0.00 0.00 68 1014.0
20260508050804 83 45 1.7 3.5 0.00 0.00 0.00 68 1014.0
20260508050302 83 62 3.5 4.3 0.00 0.00 0.00 66 1014.0
20260508045801 82 52 1.7 4.3 0.00 0.00 0.00 69 1014.0
20260508045306 81 165 0.0 0.9 0.00 0.00 0.00 73 1014.0
20260508044802 81 313 0.9 1.7 0.00 0.00 0.00 74 1014.0
20260508044301 81 74 2.6 4.3 0.00 0.00 0.00 72 1014.0
20260508043802 81 62 3.5 4.3 0.00 0.00 0.00 72 1014.0
20260508043304 81 340 1.7 3.5 0.00 0.00 0.00 76 1014.0
20260508042801 82 324 2.6 4.3 0.00 0.00 0.00 74 1014.0
20260508042307 82 68 2.6 3.5 0.00 0.00 0.00 73 1014.0
20260508041802 82 332 0.9 2.6 0.00 0.00 0.00 74 1014.0
20260508041302 81 140 0.9 1.7 0.00 0.00 0.00 77 1014.0
20260508040804 81 43 1.7 3.5 0.00 0.00 0.00 76 1014.0
20260508040304 80 259 0.0 0.9 0.00 0.00 0.00 76 1014.0
20260508035804 80 28 0.9 1.7 0.00 0.00 0.00 79 1014.0
20260508035306 80 311 0.9 2.6 0.00 0.00 0.00 78 1014.0
20260508034803 80 12 0.0 1.7 0.00 0.00 0.00 79 1014.0
20260508034302 80 264 0.0 1.7 0.00 0.00 0.00 78 1015.0
20260508033802 80 301 0.0 1.7 0.00 0.00 0.00 78 1015.0
20260508033304 79 304 0.0 0.9 0.00 0.00 0.00 79 1015.0
20260508032803 80 55 1.7 3.5 0.00 0.00 0.00 78 1015.0
20260508032306 79 49 0.9 1.7 0.00 0.00 0.00 79 1015.0
20260508031806 78 306 0.9 1.7 0.00 0.00 0.00 81 1015.0
20260508031302 78 350 0.9 1.7 0.00 0.00 0.00 83 1015.0
20260508030804 78 23 1.7 3.5 0.00 0.00 0.00 81 1015.0
20260508030302 78 118 0.0 0.9 0.00 0.00 0.00 82 1015.0
20260508025802 78 28 0.9 1.7 0.00 0.00 0.00 82 1015.0
20260508025305 78 35 1.7 3.5 0.00 0.00 0.00 82 1014.0